Location: Lalanga
(4.5882°N, 32.9072°E)
Time: 18:20:02
(UTC+00:00)

Ariane H10+ - Pass Details

Date: 24 January 2020
Orbit: 236 x 8404 km, 6.8° (Epoch: 26 February)

Event Time Altitude Azimuth Distance (km) Brightness Sun altitude
Rises 18:15:37 0° 258° (WSW) 2,592 5.8 -33.4°
Reaches altitude 10° 18:17:03 10° 256° (WSW) 1,996 5.0 -33.7°
Enters shadow 18:20:06 55° 238° (WSW) 1,122 3.0 -34.4°
